Regional Weather Roundup
Issued by NWS

Home | Current Version | Previous Version | Text Only | Print | Product List | Glossary Off
Versions: 1 2 3 4 5 6 7 8 9 10 11 12 13 14 15 16 17 18 19 20 21 22 23 24 25 26 27 28 29 30 31 32 33 34 35 36 37 38 39 40 41 42 43 44 45 46 47 48 49 50

000
ASUS45 KTFX 141010
RWRMT
MONTANA REGIONAL WEATHER ROUNDUP
NATIONAL WEATHER SERVICE GREAT FALLS MT
300 AM MST SUN FEB 14 2016

NOTE: "FAIR" INDICATES FEW OR NO CLOUDS BELOW 12000 FEET WITH NO
SIGNIFICANT WEATHER AND/OR OBSTRUCTIONS TO VISIBILITY.

MTZ001>007-043-141100-
WEST OF THE DIVIDE

CITY           SKY/WX    TMP DP  RH WIND       PRES   REMARKS
KALISPELL      CLOUDY    33  32  96 S12       29.97S WCI  24
MISSOULA       CLOUDY    34  30  85 NW6       30.03R WCI  29
BUTTE          CLOUDY    34  22  61 CALM      29.96F
MULLAN PASS    LGT SNOW  26  25  96 VRB6      29.96S FOG     WCI  19
ANACONDA         N/A     36  23  60 W15       29.94F WCI  26
DEER LODGE       N/A     30  28  93 NW3       29.96F
HAMILTON         N/A     41  27  56 S12       30.02S
$$

MTZ008-052>055-141100-
SOUTHWEST MONTANA

CITY           SKY/WX    TMP DP  RH WIND       PRES   REMARKS
BOZEMAN        CLOUDY    38  26  62 SW3       29.96F
DILLON         CLOUDY    38  23  55 S10       30.00F WCI  31
ENNIS          CLOUDY    36  25  64 S18       30.03F WCI  25
$$

MTZ009-010-012-014-046-048-049-054-141100-
EAST SLOPES AND CENTRAL MONTANA

CITY           SKY/WX    TMP DP  RH WIND       PRES   REMARKS
CUT BANK       CLOUDY    35  23  61 W16       29.76F WCI  25
GREAT FALLS    CLOUDY    36  23  59 SW25      29.81F WCI  24
MALMSTROM AFB  CLOUDY    38  24  55 SW28G36   29.83F WCI  27
HELENA         CLOUDY    32  28  85 CALM      29.93F
CHOTEAU          N/A     37  19  48 CALM      29.80F
$$

MTZ011-013-016-021-045-047-050-051-141100-
NORTH CENTRAL MONTANA

CITY           SKY/WX    TMP DP  RH WIND       PRES   REMARKS
HAVRE          CLOUDY    36  25  64 SW13      29.78F WCI  27
LEWISTOWN      CLOUDY    37  23  56 W14       29.84F WCI  28
N BAR RANCH    MIX PCPN  36  23  60 W17G28    29.86F WCI  25
CHINOOK          N/A     28  23  80 W3        29.79F
$$

MTZ017>020-022>027-061-062-141100-
NORTHEAST MONTANA

CITY           SKY/WX    TMP DP  RH WIND       PRES   REMARKS
GLASGOW        CLOUDY    28  24  85 W9        29.79F WCI  19
JORDAN           N/A     33  27  78 W9        29.82F WCI  25
SIDNEY         CLEAR     27  25  93 SW6       29.81S WCI  20
WOLF POINT     CLEAR     28  25  88 SW5       29.81F
PLENTYWOOD       N/A     28  27  93 W7        29.75F WCI  21
POPLAR           N/A     28  27  93 CALM      29.81F
$$

MTZ028>42-056>058-141100-
SOUTHCENTRAL AND SOUTHEAST MONTANA

CITY           SKY/WX    TMP DP  RH WIND       PRES   REMARKS
BAKER          CLEAR     30  25  81 W13       29.82F WCI  20
BILLINGS       CLOUDY    34  19  54 SW8       29.91R WCI  27
LIVINGSTON     LGT SNOW  33  32  96 W20G28    29.94R VSB 3/4 WCI  21
MILES CITY     MOCLDY    33  26  75 N7        29.84F WCI  27
FORSYTH          N/A     34  25  69 SW5       29.87F
$$

REGIONAL REPORTS...DAKOTAS

CITY           SKY/WX    TMP DP  RH WIND       PRES   REMARKS
WILLISTON      CLOUDY    35  30  82 W8        29.77F WCI  29
MINOT          CLOUDY    24  19  81 NW6       29.73S WCI  17
DICKINSON      CLOUDY    32  29  88 NW14      29.74F WCI  22
BEACH            N/A     30  30 100 W15       29.82F WCI  19
CROSBY         LGT SNOW  25  25 100 CALM      29.76F
TIOGA          CLOUDY    25  25 100 W13       29.79F FOG     WCI  13
BISMARCK       CLOUDY    22  18  85 CALM      29.79S FOG
GRAND FORKS    MIX PCPN  14   8  77 S21G28    29.92F WCI  -4
FARGO          LGT SNOW  14   8  77 S22G30    29.95F WCI  -4
BUFFALO SD       N/A     30  26  85 W14       29.75F WCI  19
RAPID CITY     CLEAR     36  26  67 W12       29.86S WCI  28
$$

REGIONAL REPORTS...WYOMING/IDAHO/WASHINGTON

CITY           SKY/WX    TMP DP  RH WIND       PRES   REMARKS
GILLETTE       CLOUDY    30  22  72 SW13      29.91F WCI  20
SHERIDAN       CLOUDY    29  19  66 S7        29.89F WCI  22
BUFFALO WY     CLOUDY    30  15  53 S3        29.90F
CODY           CLOUDY    39  19  45 SW17G33   29.89F WCI  30
YELLOWSTONE LA   N/A     22  17  81 VRB3      30.03F
IDAHO FALLS    CLOUDY    35  27  72 S16G26    30.13S WCI  25
SALMON         CLOUDY    34  27  75 N8        30.06S WCI  27
BOISE          LGT RAIN  42  37  82 S3        30.20R
SPOKANE        CLOUDY    39  36  89 SW20      30.04R WCI  29
$$

REGIONAL REPORTS...ALBERTA

CITY           SKY/WX    TMP DP  RH WIND       PRES   REMARKS
EDMONTON       PTCLDY    30  23  74 SW6       29.63S WCI  24
CALGARY        MOCLDY    36  18  48 W8        29.66S WCI  29
LETHBRIDGE     CLOUDY    41  21  45 W32G41    29.70F
MEDICINE HAT   CLEAR     34  28  80 S14       29.70F WCI  24
WATERTON GATE    N/A     37  19  48 SW29G47     N/A  WCI  25
CARDSTON         N/A     39  19  45 W10G17      N/A
MILK RIVER       N/A     36  23  60 W18G24      N/A  WCI  25
$$

REGIONAL REPORTS...SASKATCHEWAN

CITY           SKY/WX    TMP DP  RH WIND       PRES   REMARKS
SWIFT CURRENT  PTCLDY    27  21  80 SW15      29.69F WCI  15
REGINA         CLOUDY    27  27 100 NW7       29.71F WCI  19
SASKATOON      PTCLDY    16  16 100 SW8       29.69F FOG     WCI   5
CYPRESS HILLS    N/A     28  25  86 W9          N/A  WCI  20
VAL MARIE        N/A     28  25  86 W14         N/A  WCI  17
ROCKGLEN         N/A     27  21  80 W10         N/A  WCI  17
ASSINIBOIA       N/A     36  28  75 SW9         N/A  WCI  29
$$



USA.gov is the U.S. government's official web portal to all federal, state and local government web resources and services.